FW4213 Weather Reports


Display with metric or nautical units.
time (UTC)temp
F
wind
direction
speed
MPH
gust
MPH
rain 1hr
in
rain 24hr
in
rain mn
in
humidity
%
barometer
mb
20260504044535 69 144 7.0 13.0 0.00 0.00 0.00 47 1010.3
20260504043037 70 141 7.0 13.0 0.00 0.00 0.00 47 1009.8
20260504041534 71 139 5.0 11.0 0.00 0.00 0.00 45 1009.7
20260504033031 71 146 6.0 11.0 0.00 0.00 0.00 46 1009.3
20260504031532 72 143 5.0 8.0 0.00 0.00 0.00 45 1009.2
20260504030035 73 146 5.0 7.0 0.00 0.00 0.00 47 1009.1
20260504024530 74 155 4.0 6.0 0.00 0.00 0.00 49 1009.0
20260504021531 79 157 1.0 3.0 0.00 0.00 0.00 40 1009.2
20260504020035 81 156 1.0 3.0 0.00 0.00 0.00 33 1009.2
20260504014534 83 138 2.0 5.0 0.00 0.00 0.00 30 1009.4
20260504013034 85 128 1.0 4.0 0.00 0.00 0.00 28 1009.5
20260504010033 88 160 2.0 7.0 0.00 0.00 0.00 27 1009.8
20260504004535 88 127 2.0 7.0 0.00 0.00 0.00 27 1009.9
20260504003036 90 98 3.0 7.0 0.00 0.00 0.00 27 1010.0
20260504001531 90 64 1.0 5.0 0.00 0.00 0.00 27 1010.1
20260504000033 90 119 1.0 4.0 0.00 0.00 0.00 26 1010.3
20260503234539 90 138 1.0 6.0 0.00 0.00 0.00 26 1010.5
20260503231535 89 113 2.0 6.0 0.00 0.00 0.00 27 1010.9
20260503230030 89 126 2.0 9.0 0.00 0.00 0.00 26 1011.2
20260503224529 89 156 2.0 6.0 0.00 0.00 0.00 26 1011.4
20260503223035 89 121 1.0 7.0 0.00 0.00 0.00 26 1011.8
20260503221534 88 320 0.0 3.0 0.00 0.00 0.00 26 1012.0
20260503220030 88 62 2.0 7.0 0.00 0.00 0.00 27 1012.2
20260503214531 88 177 1.0 9.0 0.00 0.00 0.00 28 1012.4
20260503213035 86 154 2.0 8.0 0.00 0.00 0.00 29 1012.8
20260503210033 86 120 2.0 8.0 0.00 0.00 0.00 30 1013.0
20260503204609 85 102 2.0 7.0 0.00 0.00 0.00 31 1013.2
20260503203037 84 353 3.0 10.0 0.00 0.00 0.00 33 1013.4
20260503201536 83 198 1.0 4.0 0.00 0.00 0.00 39 1013.8
20260503193143 80 305 1.0 3.0 0.00 0.00 0.00 44 1014.2
20260503191643 78 292 1.0 4.0 0.00 0.00 0.00 45 1014.4
20260503190029 78 303 1.0 4.0 0.00 0.00 0.00 46 1014.6
20260503183034 75 318 2.0 5.0 0.00 0.00 0.00 49 1015.0
20260503181610 73 329 1.0 4.0 0.00 0.00 0.00 53 1015.1
20260503180032 72 329 2.0 5.0 0.00 0.00 0.00 55 1015.3
20260503173031 70 322 1.0 4.0 0.00 0.00 0.00 58 1015.6
20260503171532 69 330 1.0 3.0 0.00 0.00 0.00 58 1015.7
20260503071536 56 135 2.0 5.0 0.00 0.00 0.00 82 1015.6
20260503060143 58 145 4.0 7.0 0.00 0.00 0.00 84 1015.5